Total_Precipitation_Accumulation
1.48 1.90 2.47 2.93 3.49 4.29 4.75 4.80 4.40 3.55 2.97 2.49 2.24 2.01 1.76 1.59 1.37 1.13 0.95 0.81 0.78 0.71 0.71 0.68 0.68 0.74 0.72 0.73 0.88 1.00 1.01 0.85 1.02 1.12 0.95 0.78 0.68 0.65 0.63 0.58 0.57 0.59 0.65
1.31 1.90 2.60 3.20 3.54 3.95 4.16 4.08 3.55 2.77 2.25 1.93 1.77 1.56 1.37 1.12 1.01 0.85 0.76 0.69 0.65 0.61 0.59 0.57 0.54 0.53 0.57 0.59 0.65 0.75 0.76 0.68 0.80 0.91 0.87 0.68 0.60 0.52 0.38 0.41 0.42 0.43 0.56
1.52 2.24 2.99 3.50 3.55 3.41 3.07 2.70 2.39 1.98 1.79 1.68 1.48 1.28 1.20 1.02 0.84 0.62 0.51 0.48 0.44 0.41 0.40 0.37 0.37 0.39 0.42 0.45 0.52 0.60 0.63 0.59 0.56 0.67 0.77 0.63 0.51 0.45 0.39 0.37 0.39 0.46 0.51
1.63 2.32 2.82 2.88 2.83 2.57 2.14 1.89 1.76 1.62 1.47 1.36 1.26 1.04 0.85 0.76 0.62 0.53 0.45 0.40 0.34 0.32 0.30 0.26 0.26 0.26 0.28 0.36 0.37 0.46 0.56 0.57 0.46 0.48 0.56 0.56 0.54 0.48 0.44 0.40 0.37 0.42 0.45
1.19 1.39 1.55 1.57 1.57 1.45 1.51 1.55 1.55 1.52 1.40 1.28 1.17 1.06 0.83 0.72 0.66 0.64 0.57 0.49 0.40 0.33 0.30 0.29 0.26 0.26 0.24 0.27 0.30 0.38 0.47 0.54 0.48 0.45 0.50 0.59 0.58 0.50 0.47 0.42 0.42 0.46 0.39
0.66 0.70 0.71 0.76 0.90 0.85 0.97 1.09 1.11 1.20 1.27 1.23 1.07 0.98 0.84 0.74 0.68 0.63 0.51 0.44 0.37 0.33 0.31 0.31 0.33 0.31 0.30 0.29 0.28 0.30 0.35 0.47 0.55 0.54 0.52 0.57 0.58 0.48 0.44 0.37 0.35 0.42 0.41
0.47 0.55 0.60 0.67 0.78 0.65 0.65 0.79 0.83 0.83 0.91 0.90 0.83 0.82 0.82 0.75 0.63 0.54 0.46 0.38 0.29 0.27 0.28 0.28 0.30 0.32 0.34 0.33 0.31 0.31 0.31 0.38 0.48 0.50 0.53 0.53 0.52 0.56 0.56 0.51 0.43 0.45 0.50
0.31 0.37 0.41 0.48 0.56 0.47 0.46 0.57 0.66 0.63 0.62 0.62 0.62 0.63 0.69 0.60 0.53 0.55 0.47 0.38 0.30 0.26 0.27 0.26 0.26 0.28 0.32 0.36 0.38 0.35 0.35 0.39 0.41 0.41 0.53 0.57 0.52 0.61 0.65 0.68 0.72 0.64 0.65
0.19 0.22 0.23 0.26 0.33 0.34 0.36 0.42 0.51 0.53 0.48 0.49 0.49 0.47 0.55 0.56 0.52 0.50 0.44 0.39 0.40 0.33 0.30 0.29 0.29 0.30 0.32 0.36 0.38 0.37 0.37 0.41 0.41 0.43 0.53 0.60 0.66 0.70 0.66 0.76 0.84 0.85 0.79
0.15 0.13 0.13 0.14 0.18 0.24 0.33 0.39 0.44 0.47 0.45 0.44 0.44 0.37 0.41 0.50 0.57 0.52 0.45 0.44 0.44 0.38 0.35 0.33 0.32 0.32 0.33 0.34 0.36 0.37 0.43 0.48 0.51 0.57 0.61 0.63 0.68 0.77 0.70 0.75 0.82 0.84 0.89
0.15 0.12 0.09 0.09 0.12 0.18 0.24 0.29 0.39 0.47 0.47 0.46 0.49 0.49 0.46 0.43 0.50 0.55 0.55 0.54 0.55 0.46 0.40 0.39 0.40 0.39 0.38 0.40 0.45 0.47 0.49 0.57 0.67 0.74 0.76 0.79 0.80 0.83 0.80 0.86 0.87 0.82 0.89
0.12 0.10 0.09 0.10 0.13 0.14 0.18 0.24 0.31 0.42 0.44 0.46 0.50 0.52 0.53 0.46 0.47 0.52 0.55 0.56 0.60 0.62 0.56 0.50 0.46 0.38 0.34 0.42 0.52 0.59 0.57 0.60 0.67 0.87 1.07 1.08 1.07 0.98 0.88 0.96 0.93 0.89 1.02
0.15 0.12 0.16 0.17 0.16 0.19 0.22 0.28 0.34 0.43 0.51 0.51 0.52 0.54 0.55 0.51 0.50 0.57 0.60 0.58 0.65 0.71 0.72 0.66 0.57 0.44 0.37 0.39 0.44 0.56 0.58 0.65 0.77 0.92 1.05 1.15 1.26 1.14 1.04 1.01 0.99 1.01 1.10
0.15 0.12 0.13 0.17 0.18 0.23 0.29 0.37 0.54 0.49 0.46 0.53 0.56 0.56 0.57 0.60 0.61 0.63 0.68 0.68 0.73 0.75 0.78 0.75 0.70 0.62 0.50 0.43 0.45 0.51 0.57 0.70 0.87 0.92 0.85 0.95 1.20 1.29 1.21 1.09 1.01 1.04 1.09
0.16 0.16 0.16 0.17 0.24 0.29 0.32 0.39 0.46 0.58 0.60 0.69 0.73 0.75 0.81 0.87 0.90 0.90 0.90 0.85 0.84 0.83 0.87 0.88 0.85 0.77 0.63 0.49 0.52 0.60 0.54 0.61 0.70 0.72 0.68 0.70 0.87 1.11 1.27 1.18 1.09 1.09 1.05
0.21 0.22 0.24 0.24 0.24 0.26 0.32 0.40 0.43 0.52 0.65 0.82 0.90 0.94 1.08 1.18 1.21 1.26 1.28 1.20 1.11 1.14 1.19 1.15 1.06 0.96 0.70 0.61 0.58 0.56 0.59 0.64 0.69 0.69 0.68 0.61 0.56 0.64 0.84 1.04 1.16 1.22 1.13
0.33 0.33 0.35 0.33 0.31 0.30 0.34 0.40 0.47 0.59 0.74 0.93 1.10 1.22 1.34 1.46 1.54 1.59 1.59 1.50 1.48 1.50 1.49 1.39 1.23 1.11 1.00 0.80 0.64 0.56 0.56 0.58 0.60 0.64 0.66 0.54 0.45 0.53 0.57 0.72 0.84 0.96 1.00
0.36 0.35 0.42 0.43 0.40 0.43 0.49 0.56 0.67 0.82 0.98 1.14 1.32 1.49 1.50 1.51 1.56 1.60 1.54 1.53 1.59 1.61 1.57 1.47 1.34 1.26 1.12 0.91 0.70 0.61 0.52 0.56 0.59 0.63 0.65 0.63 0.57 0.55 0.60 0.65 0.66 0.70 0.76
0.34 0.35 0.40 0.48 0.54 0.54 0.60 0.68 0.71 0.82 1.00 1.16 1.24 1.31 1.40 1.50 1.55 1.54 1.58 1.60 1.61 1.50 1.38 1.31 1.28 1.24 1.21 1.03 0.80 0.71 0.67 0.73 0.72 0.70 0.69 0.69 0.64 0.63 0.53 0.56 0.60 0.63 0.67
0.33 0.35 0.37 0.42 0.51 0.59 0.61 0.64 0.71 0.83 1.01 1.15 1.18 1.18 1.29 1.42 1.50 1.52 1.52 1.49 1.47 1.44 1.39 1.31 1.29 1.28 1.26 1.13 0.83 0.74 0.73 0.79 0.80 0.82 0.81 0.72 0.63 0.58 0.49 0.51 0.59 0.59 0.61
0.36 0.38 0.43 0.44 0.46 0.54 0.59 0.68 0.78 0.85 0.90 0.99 1.07 1.15 1.29 1.39 1.43 1.47 1.47 1.46 1.46 1.48 1.48 1.40 1.31 1.28 1.25 1.18 0.90 0.77 0.73 0.82 0.92 0.91 0.87 0.85 0.72 0.54 0.49 0.50 0.57 0.56 0.62
0.38 0.39 0.46 0.55 0.58 0.58 0.59 0.63 0.66 0.67 0.74 0.79 0.84 0.88 0.99 1.12 1.18 1.27 1.28 1.32 1.29 1.25 1.23 1.22 1.16 1.13 1.12 1.04 0.90 0.71 0.63 0.72 0.90 0.99 1.01 1.01 0.83 0.61 0.50 0.43 0.41 0.39 0.40
0.43 0.43 0.46 0.51 0.52 0.56 0.62 0.69 0.68 0.66 0.66 0.66 0.66 0.68 0.73 0.89 1.03 1.08 1.07 1.10 1.11 1.09 1.06 1.07 1.04 1.00 0.98 0.91 0.70 0.56 0.47 0.52 0.69 0.85 0.95 0.89 0.74 0.62 0.50 0.42 0.37 0.35 0.34
0.29 0.35 0.39 0.46 0.49 0.48 0.51 0.57 0.61 0.62 0.66 0.66 0.65 0.65 0.70 0.80 1.05 1.18 1.12 1.06 1.04 1.00 0.99 0.94 0.93 0.97 1.02 0.98 0.79 0.59 0.46 0.49 0.62 0.71 0.74 0.74 0.73 0.71 0.66 0.54 0.45 0.37 0.39
0.22 0.25 0.29 0.32 0.32 0.33 0.37 0.40 0.45 0.52 0.56 0.54 0.51 0.52 0.58 0.71 0.91 1.07 1.06 0.93 0.90 0.89 0.89 0.86 0.85 0.82 0.81 0.79 0.69 0.58 0.57 0.63 0.71 0.72 0.79 0.81 0.87 0.91 0.90 0.85 0.76 0.70 0.67
0.22 0.25 0.28 0.32 0.34 0.35 0.40 0.44 0.47 0.54 0.59 0.56 0.53 0.52 0.54 0.62 0.82 1.02 1.07 0.87 0.71 0.70 0.70 0.65 0.63 0.60 0.54 0.50 0.51 0.49 0.49 0.54 0.59 0.60 0.76 0.88 0.97 1.05 1.07 1.08 1.01 0.93 0.85